Regional Weather Roundup
Issued by NWS Green Bay, WI

Home | Current Version | Previous Version | Graphics & Text | Print | Product List | Glossary Off
Versions: 1 2 3 4 5 6 7 8 9 10 11 12 13 14 15 16 17 18 19 20 21 22 23 24 25 26 27 28 29 30 31 32 33 34 35 36 37 38 39 40 41 42 43 44 45 46 47 48 49 50

000
ASUS43 KGRB 192201
RWRGRB

NORTH-CENTRAL AND NORTHEAST WISCONSIN REGIONAL WEATHER ROUNDUP
NATIONAL WEATHER SERVICE GREEN BAY WI
500 PM CDT TUE SEP 19 2017

WIZ005-009-010>012-018-019-192300-
NORTH CENTRAL WISCONSIN

CITY           SKY/WX    TMP DP  RH WIND       PRES   REMARKS
IRONWOOD       MOSUNNY   74  57  55 SE13      29.89F
MANITOWISH WTR NOT AVBL
ARBOR VITAE    NOT AVBL
EAGLE RIVER    NOT AVBL
LAND O LAKES   NOT AVBL
RHINELANDER    SUNNY     72  58  61 SE10      29.94F
PHILLIPS       NOT AVBL
ANTIGO         NOT AVBL
TOMAHAWK       NOT AVBL
MERRILL        NOT AVBL
$$

WIZ013-073-192300-
NORTHEAST WISCONSIN

CITY           SKY/WX    TMP DP  RH WIND       PRES   REMARKS
IRON MOUNTAIN  MOSUNNY   72  56  57 SE12      29.96F
MARINETTE      SUNNY     70  59  68 E8        29.97F
$$

WIZ017-030-035>037-045-192300-
CENTRAL WISCONSIN

CITY           SKY/WX    TMP DP  RH WIND       PRES   REMARKS
MEDFORD        NOT AVBL
WAUSAU         SUNNY     74  57  55 SE12G18   29.90F
MOSINEE        MOSUNNY   73  57  56 SE12      29.92F
MARSHFIELD     SUNNY     76  51  41 SE10      29.89F
WISC RAPIDS    SUNNY     79  54  41 SE14      29.90F
STEVENS POINT  NOT AVBL
WAUPACA        NOT AVBL
SHAWANO        NOT AVBL
CLINTONVILLE   NOT AVBL
WAUTOMA        SUNNY     79  57  46 E9        29.90F
$$

WIZ038-039-048-051-192300-
FOX VALLEY

CITY           SKY/WX    TMP DP  RH WIND       PRES   REMARKS
NWS GREEN BAY  SUNNY     74  58  57 E7        29.94F
APPLETON       MOSUNNY   73  54  49 SE12      29.93F
OSHKOSH        SUNNY     74  61  63 E12       29.92F
FOND DU LAC    SUNNY     76  56  49 SE12      29.92F
$$

WIZ022-050-052-192300-
EAST CENTRAL WISCONSIN

CITY           SKY/WX    TMP DP  RH WIND       PRES   REMARKS
EPHRAIM        NOT AVBL
WASHINGTON ISL NOT AVBL
STURGEON BAY   SUNNY     70  52  52 E7        29.97F
MANITOWOC      SUNNY     67  60  78 E8        29.96F
SHEBOYGAN      SUNNY     70  61  73 VRB5      29.95F
$$

LMZ563-521-522-541>543-192300-
LAKESHORE

STATION/POSITION TIME  TEMP    WIND        PRES    VSBY  WAVE
                       AIR SEA DIR/SP/G                  HT/PER
                 (UTC) (F)     (DEG/KT/KT) (MB)    (MI)  (FT/S)
SHEBOYGAN LKSHOR 2100   65      80/  8/  8 1014.3F
KEWAUNEE LKSHORE 2124   66      CALM  /  4 1014.1
NORTHPORT PIER   2140   65      80/  7/  9 1014.9F
N MID LAKE BUOY  2050   65 65   70/  8/ 10 1016.1F         1/ 3
S GREEN BAY BUOY 2130   70 67  120/  6/  8 1014.5F
MENOMINEE LKSHOR 2124   70      80/  1/  1 1014.7
$$



USA.gov is the U.S. government's official web portal to all federal, state and local government web resources and services.